Year,Month,Day,Hour,Minute,Value (Times are PST for windgust in km/hr)
2016,10,07,00,00,19.30
2016,10,07,00,01,6.40
2016,10,07,00,02,8.10
2016,10,07,00,03,6.40
2016,10,07,00,04,8.10
2016,10,07,00,05,8.10
2016,10,07,00,06,6.40
2016,10,07,00,07,4.80
2016,10,07,00,09,8.10
2016,10,07,00,10,11.30
2016,10,07,00,11,17.70
2016,10,07,00,12,24.20
2016,10,07,00,13,14.50
2016,10,07,00,14,9.60
2016,10,07,00,15,4.80
2016,10,07,00,16,4.80
2016,10,07,00,17,4.80
2016,10,07,00,19,6.40
2016,10,07,00,20,4.80
2016,10,07,00,21,1.60
2016,10,07,00,24,4.80
2016,10,07,00,28,1.60
2016,10,07,00,29,4.80
2016,10,07,00,30,11.30
2016,10,07,00,31,3.20
2016,10,07,00,32,4.80
2016,10,07,00,33,9.60
2016,10,07,00,34,9.60
2016,10,07,00,35,11.30
2016,10,07,00,36,14.50
2016,10,07,00,37,6.40
2016,10,07,00,38,3.20
2016,10,07,00,40,6.40
2016,10,07,00,41,6.40
2016,10,07,00,43,6.40
2016,10,07,00,44,6.40
2016,10,07,00,45,3.20
2016,10,07,00,57,1.60
2016,10,07,01,23,1.60
2016,10,07,01,41,1.60
2016,10,07,01,43,3.20
2016,10,07,01,44,3.20
2016,10,07,01,46,1.60
2016,10,07,01,51,1.60
2016,10,07,01,52,11.30
2016,10,07,01,53,3.20
2016,10,07,01,55,1.60
2016,10,07,01,56,6.40
2016,10,07,01,57,4.80
2016,10,07,01,58,4.80
2016,10,07,01,59,6.40
2016,10,07,02,00,4.80
2016,10,07,02,02,9.60
2016,10,07,02,03,8.10
2016,10,07,02,04,8.10
2016,10,07,02,05,12.90
2016,10,07,02,06,12.90
2016,10,07,02,07,11.30
2016,10,07,02,08,17.70
2016,10,07,02,09,9.60
2016,10,07,02,10,9.60
2016,10,07,02,11,9.60
2016,10,07,02,12,16.10
2016,10,07,02,13,8.10
2016,10,07,02,14,17.70
2016,10,07,02,15,19.30
2016,10,07,02,16,24.20
2016,10,07,02,17,22.50
2016,10,07,02,18,37.00
2016,10,07,02,19,17.70
2016,10,07,02,20,38.60
2016,10,07,02,21,22.50
2016,10,07,02,22,32.20
2016,10,07,02,23,30.60
2016,10,07,02,24,19.30
2016,10,07,02,25,14.50
2016,10,07,02,26,19.30
2016,10,07,02,27,33.80
2016,10,07,02,28,25.70
2016,10,07,02,29,11.30
2016,10,07,02,30,35.40
2016,10,07,02,31,40.20
2016,10,07,02,32,35.40
2016,10,07,02,33,20.90
2016,10,07,02,34,33.80
2016,10,07,02,35,33.80
2016,10,07,02,36,20.90
2016,10,07,02,37,16.10
2016,10,07,02,38,4.80
2016,10,07,02,39,24.20
2016,10,07,02,40,24.20
2016,10,07,02,41,19.30
2016,10,07,02,42,27.40
2016,10,07,02,43,22.50
2016,10,07,02,44,8.10
2016,10,07,02,45,20.90
2016,10,07,02,46,11.30
2016,10,07,02,47,24.20
2016,10,07,02,48,24.20
2016,10,07,02,49,20.90
2016,10,07,02,50,24.20
2016,10,07,02,51,27.40
2016,10,07,02,52,38.60
2016,10,07,02,53,30.60
2016,10,07,02,54,27.40
2016,10,07,02,55,14.50
2016,10,07,02,56,17.70
2016,10,07,02,57,30.60
2016,10,07,02,58,22.50
2016,10,07,02,59,17.70
2016,10,07,03,00,16.10
2016,10,07,03,01,11.30
2016,10,07,03,02,17.70
2016,10,07,03,03,14.50
2016,10,07,03,04,17.70
2016,10,07,03,05,22.50
2016,10,07,03,06,32.20
2016,10,07,03,07,25.70
2016,10,07,03,08,25.70
2016,10,07,03,09,27.40
2016,10,07,03,10,25.70
2016,10,07,03,11,16.10
2016,10,07,03,12,8.10
2016,10,07,03,13,25.70
2016,10,07,03,14,24.20
2016,10,07,03,15,25.70
2016,10,07,03,16,22.50
2016,10,07,03,17,9.60
2016,10,07,03,18,33.80
2016,10,07,03,19,43.50
2016,10,07,03,20,16.10
2016,10,07,03,21,22.50
2016,10,07,03,22,20.90
2016,10,07,03,23,11.30
2016,10,07,03,24,12.90
2016,10,07,03,25,16.10
2016,10,07,03,26,43.50
2016,10,07,03,27,48.30
2016,10,07,03,28,17.70
2016,10,07,03,29,33.80
2016,10,07,03,30,41.80
2016,10,07,03,31,20.90
2016,10,07,03,32,17.70
2016,10,07,03,33,20.90
2016,10,07,03,34,32.20
2016,10,07,03,35,30.60
2016,10,07,03,36,30.60
2016,10,07,03,37,25.70
2016,10,07,03,38,11.30
2016,10,07,03,39,22.50
2016,10,07,03,40,43.50
2016,10,07,03,41,19.30
2016,10,07,03,42,16.10
2016,10,07,03,43,19.30
2016,10,07,03,44,37.00
2016,10,07,03,45,51.50
2016,10,07,03,46,32.20
2016,10,07,03,47,22.50
2016,10,07,03,48,4.80
2016,10,07,03,49,17.70
2016,10,07,03,50,11.30
2016,10,07,03,51,12.90
2016,10,07,03,52,19.30
2016,10,07,03,53,25.70
2016,10,07,03,54,29.00
2016,10,07,03,55,19.30
2016,10,07,03,56,30.60
2016,10,07,03,57,19.30
2016,10,07,03,58,11.30
2016,10,07,03,59,35.40
2016,10,07,04,00,20.90
2016,10,07,04,01,16.10
2016,10,07,04,02,30.60
2016,10,07,04,03,30.60
2016,10,07,04,04,37.00
2016,10,07,04,05,32.20
2016,10,07,04,06,29.00
2016,10,07,04,07,14.50
2016,10,07,04,08,17.70
2016,10,07,04,09,30.60
2016,10,07,04,10,40.20
2016,10,07,04,11,37.00
2016,10,07,04,12,24.20
2016,10,07,04,13,8.10
2016,10,07,04,14,16.10
2016,10,07,04,15,19.30
2016,10,07,04,16,27.40
2016,10,07,04,17,32.20
2016,10,07,04,18,40.20
2016,10,07,04,19,16.10
2016,10,07,04,20,16.10
2016,10,07,04,21,48.30
2016,10,07,04,22,20.90
2016,10,07,04,23,48.30
2016,10,07,04,24,20.90
2016,10,07,04,25,32.20
2016,10,07,04,26,22.50
2016,10,07,04,27,17.70
2016,10,07,04,28,32.20
2016,10,07,04,29,29.00
2016,10,07,04,30,24.20
2016,10,07,04,31,9.60
2016,10,07,04,32,11.30
2016,10,07,04,33,38.60
2016,10,07,04,34,43.50
2016,10,07,04,35,33.80
2016,10,07,04,36,32.20
2016,10,07,04,37,32.20
2016,10,07,04,38,27.40
2016,10,07,04,39,46.70
2016,10,07,04,40,33.80
2016,10,07,04,41,37.00
2016,10,07,04,42,49.90
2016,10,07,04,43,25.70
2016,10,07,04,44,38.60
2016,10,07,04,45,25.70
2016,10,07,04,46,35.40
2016,10,07,04,47,8.10
2016,10,07,04,48,6.40
2016,10,07,04,49,1.60
2016,10,07,04,50,27.40
2016,10,07,04,51,27.40
2016,10,07,04,52,22.50
2016,10,07,04,53,29.00
2016,10,07,04,54,43.50
2016,10,07,04,55,43.50
2016,10,07,04,56,22.50
2016,10,07,04,57,33.80
2016,10,07,04,58,20.90
2016,10,07,04,59,17.70
2016,10,07,05,00,4.80
2016,10,07,05,01,6.40
2016,10,07,05,02,25.70
2016,10,07,05,03,25.70
2016,10,07,05,04,33.80
2016,10,07,05,05,29.00
2016,10,07,05,06,14.50
2016,10,07,05,07,9.60
2016,10,07,05,08,8.10
2016,10,07,05,09,16.10
2016,10,07,05,10,32.20
2016,10,07,05,11,27.40
2016,10,07,05,12,32.20
2016,10,07,05,13,20.90
2016,10,07,05,14,19.30
2016,10,07,05,15,24.20
2016,10,07,05,16,27.40
2016,10,07,05,17,9.60
2016,10,07,05,18,9.60
2016,10,07,05,19,22.50
2016,10,07,05,20,29.00
2016,10,07,05,21,9.60
2016,10,07,05,22,4.80
2016,10,07,05,23,30.60
2016,10,07,05,24,25.70
2016,10,07,05,25,27.40
2016,10,07,05,26,27.40
2016,10,07,05,27,29.00
2016,10,07,05,28,32.20
2016,10,07,05,29,17.70
2016,10,07,05,30,4.80
2016,10,07,05,31,29.00
2016,10,07,05,32,27.40
2016,10,07,05,33,16.10
2016,10,07,05,34,32.20
2016,10,07,05,35,38.60
2016,10,07,05,36,22.50
2016,10,07,05,37,14.50
2016,10,07,05,38,17.70
2016,10,07,05,39,37.00
2016,10,07,05,40,22.50
2016,10,07,05,41,25.70
2016,10,07,05,42,24.20
2016,10,07,05,43,20.90
2016,10,07,05,44,16.10
2016,10,07,05,45,9.60
2016,10,07,05,46,17.70
2016,10,07,05,47,35.40
2016,10,07,05,48,53.10
2016,10,07,05,49,32.20
2016,10,07,05,50,33.80
2016,10,07,05,51,24.20
2016,10,07,05,52,14.50
2016,10,07,05,53,19.30
2016,10,07,05,54,46.70
2016,10,07,05,55,27.40
2016,10,07,05,56,17.70
2016,10,07,05,57,24.20
2016,10,07,05,58,19.30
2016,10,07,05,59,16.10
2016,10,07,06,00,20.90
2016,10,07,06,01,25.70
2016,10,07,06,02,27.40
2016,10,07,06,03,35.40
2016,10,07,06,04,24.20
2016,10,07,06,05,17.70
2016,10,07,06,06,11.30
2016,10,07,06,07,11.30
2016,10,07,06,08,17.70
2016,10,07,06,09,20.90
2016,10,07,06,10,11.30
2016,10,07,06,11,27.40
2016,10,07,06,12,24.20
2016,10,07,06,13,9.60
2016,10,07,06,14,12.90
2016,10,07,06,15,22.50
2016,10,07,06,16,8.10
2016,10,07,06,17,8.10
2016,10,07,06,18,6.40
2016,10,07,06,19,16.10
2016,10,07,06,20,8.10
2016,10,07,06,21,19.30
2016,10,07,06,22,14.50
2016,10,07,06,23,16.10
2016,10,07,06,24,14.50
2016,10,07,06,25,8.10
2016,10,07,06,26,3.20
2016,10,07,06,27,12.90
2016,10,07,06,28,30.60
2016,10,07,06,29,27.40
2016,10,07,06,30,24.20
2016,10,07,06,31,17.70
2016,10,07,06,32,6.40
2016,10,07,06,33,25.70
2016,10,07,06,34,32.20
2016,10,07,06,35,32.20
2016,10,07,06,36,24.20
2016,10,07,06,37,11.30
2016,10,07,06,38,8.10
2016,10,07,06,39,9.60
2016,10,07,06,40,8.10
2016,10,07,06,41,17.70
2016,10,07,06,42,22.50
2016,10,07,06,43,16.10
2016,10,07,06,44,32.20
2016,10,07,06,45,24.20
2016,10,07,06,46,9.60
2016,10,07,06,47,17.70
2016,10,07,06,48,20.90
2016,10,07,06,49,6.40
2016,10,07,06,50,4.80
2016,10,07,06,51,9.60
2016,10,07,06,52,8.10
2016,10,07,06,53,17.70
2016,10,07,06,54,11.30
2016,10,07,06,55,3.20
2016,10,07,06,56,27.40
2016,10,07,06,57,17.70
2016,10,07,06,58,8.10
2016,10,07,06,59,4.80
2016,10,07,07,00,3.20
2016,10,07,07,01,16.10
2016,10,07,07,02,17.70
2016,10,07,07,03,17.70
2016,10,07,07,04,19.30
2016,10,07,07,05,25.70
2016,10,07,07,06,33.80
2016,10,07,07,07,16.10
2016,10,07,07,08,16.10
2016,10,07,07,09,22.50
2016,10,07,07,10,17.70
2016,10,07,07,11,22.50
2016,10,07,07,12,17.70
2016,10,07,07,13,16.10
2016,10,07,07,14,24.20
2016,10,07,07,15,17.70
2016,10,07,07,16,22.50
2016,10,07,07,17,25.70
2016,10,07,07,18,24.20
2016,10,07,07,19,37.00
2016,10,07,07,20,38.60
2016,10,07,07,21,29.00
2016,10,07,07,22,25.70
2016,10,07,07,23,17.70
2016,10,07,07,24,30.60
2016,10,07,07,25,33.80
2016,10,07,07,26,25.70
2016,10,07,07,27,11.30
2016,10,07,07,28,6.40
2016,10,07,07,29,6.40
2016,10,07,07,30,24.20
2016,10,07,07,31,19.30
2016,10,07,07,32,16.10
2016,10,07,07,33,30.60
2016,10,07,07,34,22.50
2016,10,07,07,35,25.70
2016,10,07,07,36,16.10
2016,10,07,07,37,27.40
2016,10,07,07,38,27.40
2016,10,07,07,39,30.60
2016,10,07,07,40,30.60
2016,10,07,07,41,24.20
2016,10,07,07,42,27.40
2016,10,07,07,43,27.40
2016,10,07,07,44,24.20
2016,10,07,07,45,24.20
2016,10,07,07,46,32.20
2016,10,07,07,47,14.50
2016,10,07,07,48,27.40
2016,10,07,07,49,11.30
2016,10,07,07,50,32.20
2016,10,07,07,51,37.00
2016,10,07,07,52,49.90
2016,10,07,07,53,35.40
2016,10,07,07,54,24.20
2016,10,07,07,55,25.70
2016,10,07,07,56,19.30
2016,10,07,07,57,33.80
2016,10,07,07,58,25.70
2016,10,07,07,59,27.40
2016,10,07,08,00,27.40
2016,10,07,08,01,30.60
2016,10,07,08,02,20.90
2016,10,07,08,03,16.10
2016,10,07,08,04,29.00
2016,10,07,08,05,20.90
2016,10,07,08,06,24.20
2016,10,07,08,07,25.70
2016,10,07,08,08,25.70
2016,10,07,08,09,16.10
2016,10,07,08,10,17.70
2016,10,07,08,11,17.70
2016,10,07,08,12,17.70
2016,10,07,08,13,29.00
2016,10,07,08,14,22.50
2016,10,07,08,15,20.90
2016,10,07,08,16,43.50
2016,10,07,08,17,48.30
2016,10,07,08,18,38.60
2016,10,07,08,19,22.50
2016,10,07,08,20,24.20
2016,10,07,08,21,32.20
2016,10,07,08,22,35.40
2016,10,07,08,23,27.40
2016,10,07,08,24,25.70
2016,10,07,08,25,24.20
2016,10,07,08,26,30.60
2016,10,07,08,27,40.20
2016,10,07,08,28,33.80
2016,10,07,08,29,27.40
2016,10,07,08,30,17.70
2016,10,07,08,31,25.70
2016,10,07,08,32,32.20
2016,10,07,08,33,32.20
2016,10,07,08,34,19.30
2016,10,07,08,35,30.60
2016,10,07,08,36,32.20
2016,10,07,08,37,32.20
2016,10,07,08,38,43.50
2016,10,07,08,39,33.80
2016,10,07,08,40,33.80
2016,10,07,08,41,24.20
2016,10,07,08,42,27.40
2016,10,07,08,43,22.50
2016,10,07,08,44,25.70
2016,10,07,08,45,33.80
2016,10,07,08,46,33.80
2016,10,07,08,47,38.60
2016,10,07,08,48,37.00
2016,10,07,08,49,40.20
2016,10,07,08,50,38.60
2016,10,07,08,51,38.60
2016,10,07,08,52,29.00
2016,10,07,08,53,38.60
2016,10,07,08,54,38.60
2016,10,07,08,55,25.70
2016,10,07,08,56,40.20
2016,10,07,08,57,40.20
2016,10,07,08,58,45.10
2016,10,07,08,59,62.70
2016,10,07,09,00,33.80
2016,10,07,09,01,38.60
2016,10,07,09,02,27.40
2016,10,07,09,03,25.70
2016,10,07,09,04,43.50
2016,10,07,09,05,38.60
2016,10,07,09,06,49.90
2016,10,07,09,07,16.10
2016,10,07,09,08,37.00
2016,10,07,09,09,16.10
2016,10,07,09,10,38.60
2016,10,07,09,11,37.00
2016,10,07,09,12,30.60
2016,10,07,09,13,37.00
2016,10,07,09,14,27.40
2016,10,07,09,15,20.90
2016,10,07,09,16,29.00
2016,10,07,09,17,24.20
2016,10,07,09,18,19.30
2016,10,07,09,19,19.30
2016,10,07,09,20,27.40
2016,10,07,09,21,22.50
2016,10,07,09,22,27.40
2016,10,07,09,23,37.00
2016,10,07,09,24,40.20
2016,10,07,09,25,20.90
2016,10,07,09,26,40.20
2016,10,07,09,27,37.00
2016,10,07,09,28,22.50
2016,10,07,09,29,43.50
2016,10,07,09,30,22.50
2016,10,07,09,31,19.30
2016,10,07,09,32,33.80
2016,10,07,09,33,30.60
2016,10,07,09,34,25.70
2016,10,07,09,35,27.40
2016,10,07,09,36,32.20
2016,10,07,09,37,37.00
2016,10,07,09,38,27.40
2016,10,07,09,39,35.40
2016,10,07,09,40,19.30
2016,10,07,09,41,43.50
2016,10,07,09,42,53.10
2016,10,07,09,43,33.80
2016,10,07,09,44,22.50
2016,10,07,09,45,49.90
2016,10,07,09,46,33.80
2016,10,07,09,47,35.40
2016,10,07,09,48,32.20
2016,10,07,09,49,19.30
2016,10,07,09,50,22.50
2016,10,07,09,51,53.10
2016,10,07,09,52,29.00
2016,10,07,09,53,29.00
2016,10,07,09,54,32.20
2016,10,07,09,55,17.70
2016,10,07,09,56,32.20
2016,10,07,09,57,43.50
2016,10,07,09,58,25.70
2016,10,07,09,59,29.00
2016,10,07,10,00,37.00
2016,10,07,10,01,16.10
2016,10,07,10,02,16.10
2016,10,07,10,03,33.80
2016,10,07,10,04,33.80
2016,10,07,10,05,27.40
2016,10,07,10,06,30.60
2016,10,07,10,07,37.00
2016,10,07,10,08,30.60
2016,10,07,10,09,29.00
2016,10,07,10,10,30.60
2016,10,07,10,11,37.00
2016,10,07,10,12,19.30
2016,10,07,10,13,40.20
2016,10,07,10,14,37.00
2016,10,07,10,15,17.70
2016,10,07,10,16,22.50
2016,10,07,10,17,27.40
2016,10,07,10,18,29.00
2016,10,07,10,19,40.20
2016,10,07,10,20,27.40
2016,10,07,10,21,6.40
2016,10,07,10,22,19.30
2016,10,07,10,23,27.40
2016,10,07,10,24,35.40
2016,10,07,10,25,29.00
2016,10,07,10,26,33.80
2016,10,07,10,27,29.00
2016,10,07,10,28,22.50
2016,10,07,10,29,19.30
2016,10,07,10,30,24.20
2016,10,07,10,31,17.70
2016,10,07,10,32,11.30
2016,10,07,10,33,32.20
2016,10,07,10,34,32.20
2016,10,07,10,35,24.20
2016,10,07,10,36,32.20
2016,10,07,10,37,22.50
2016,10,07,10,38,27.40
2016,10,07,10,39,20.90
2016,10,07,10,40,27.40
2016,10,07,10,41,17.70
2016,10,07,10,42,35.40
2016,10,07,10,43,29.00
2016,10,07,10,44,22.50
2016,10,07,10,45,24.20
2016,10,07,10,46,19.30
2016,10,07,10,47,29.00
2016,10,07,10,48,32.20
2016,10,07,10,49,38.60
2016,10,07,10,50,27.40
2016,10,07,10,51,19.30
2016,10,07,10,52,9.60
2016,10,07,10,53,46.70
2016,10,07,10,54,30.60
2016,10,07,10,55,41.80
2016,10,07,10,56,30.60
2016,10,07,10,57,27.40
2016,10,07,10,58,22.50
2016,10,07,10,59,27.40
2016,10,07,11,00,17.70
2016,10,07,11,01,45.10
2016,10,07,11,02,25.70
2016,10,07,11,03,25.70
2016,10,07,11,04,25.70
2016,10,07,11,05,27.40
2016,10,07,11,06,25.70
2016,10,07,11,07,19.30
2016,10,07,11,08,37.00
2016,10,07,11,09,30.60
2016,10,07,11,10,19.30
2016,10,07,11,11,17.70
2016,10,07,11,12,25.70
2016,10,07,11,13,27.40
2016,10,07,11,14,27.40
2016,10,07,11,15,33.80
2016,10,07,11,16,22.50
2016,10,07,11,17,19.30
2016,10,07,11,18,33.80
2016,10,07,11,19,20.90
2016,10,07,11,20,29.00
2016,10,07,11,21,25.70
2016,10,07,11,22,11.30
2016,10,07,11,23,14.50
2016,10,07,11,24,19.30
2016,10,07,11,25,9.60
2016,10,07,11,26,19.30
2016,10,07,11,27,12.90
2016,10,07,11,28,8.10
2016,10,07,11,29,29.00
2016,10,07,11,30,14.50
2016,10,07,11,31,8.10
2016,10,07,11,32,9.60
2016,10,07,11,33,29.00
2016,10,07,11,34,29.00
2016,10,07,11,35,25.70
2016,10,07,11,36,22.50
2016,10,07,11,37,14.50
2016,10,07,11,38,17.70
2016,10,07,11,39,22.50
2016,10,07,11,40,19.30
2016,10,07,11,41,16.10
2016,10,07,11,42,25.70
2016,10,07,11,43,29.00
2016,10,07,11,44,11.30
2016,10,07,11,45,9.60
2016,10,07,11,46,9.60
2016,10,07,11,47,8.10
2016,10,07,11,48,4.80
2016,10,07,11,49,6.40
2016,10,07,11,50,22.50
2016,10,07,11,51,17.70
2016,10,07,11,52,19.30
2016,10,07,11,53,33.80
2016,10,07,11,54,38.60
2016,10,07,11,55,35.40
2016,10,07,11,56,19.30
2016,10,07,11,57,25.70
2016,10,07,11,58,25.70
2016,10,07,11,59,20.90
2016,10,07,12,00,27.40
2016,10,07,12,01,32.20
2016,10,07,12,02,25.70
2016,10,07,12,03,19.30
2016,10,07,12,04,25.70
2016,10,07,12,05,22.50
2016,10,07,12,06,25.70
2016,10,07,12,07,20.90
2016,10,07,12,08,16.10
2016,10,07,12,09,24.20
2016,10,07,12,10,20.90
2016,10,07,12,11,29.00
2016,10,07,12,12,32.20
2016,10,07,12,13,33.80
2016,10,07,12,14,27.40
2016,10,07,12,15,17.70
2016,10,07,12,16,16.10
2016,10,07,12,17,20.90
2016,10,07,12,18,14.50
2016,10,07,12,19,14.50
2016,10,07,12,20,17.70
2016,10,07,12,21,37.00
2016,10,07,12,22,22.50
2016,10,07,12,23,25.70
2016,10,07,12,24,30.60
2016,10,07,12,25,30.60
2016,10,07,12,26,30.60
2016,10,07,12,27,30.60
2016,10,07,12,28,38.60
2016,10,07,12,29,17.70
2016,10,07,12,30,22.50
2016,10,07,12,31,16.10
2016,10,07,12,32,29.00
2016,10,07,12,33,14.50
2016,10,07,12,34,22.50
2016,10,07,12,35,20.90
2016,10,07,12,36,19.30
2016,10,07,12,37,16.10
2016,10,07,12,38,17.70
2016,10,07,12,39,17.70
2016,10,07,12,40,9.60
2016,10,07,12,41,19.30
2016,10,07,12,42,20.90
2016,10,07,12,43,19.30
2016,10,07,12,44,11.30
2016,10,07,12,45,1.60
2016,10,07,12,47,3.20
2016,10,07,12,48,9.60
2016,10,07,12,49,24.20
2016,10,07,12,50,20.90
2016,10,07,12,51,17.70
2016,10,07,12,52,14.50
2016,10,07,12,53,11.30
2016,10,07,12,54,4.80
2016,10,07,12,55,17.70
2016,10,07,12,56,9.60
2016,10,07,12,57,12.90
2016,10,07,12,58,6.40
2016,10,07,12,59,8.10
2016,10,07,13,00,11.30
2016,10,07,13,01,16.10
2016,10,07,13,02,22.50
2016,10,07,13,03,33.80
2016,10,07,13,04,27.40
2016,10,07,13,05,9.60
2016,10,07,13,06,11.30
2016,10,07,13,07,17.70
2016,10,07,13,08,16.10
2016,10,07,13,09,12.90
2016,10,07,13,10,8.10
2016,10,07,13,11,11.30
2016,10,07,13,12,12.90
2016,10,07,13,13,11.30
2016,10,07,13,14,8.10
2016,10,07,13,15,9.60
2016,10,07,13,16,11.30
2016,10,07,13,17,16.10
2016,10,07,13,18,1.60
2016,10,07,13,20,1.60
2016,10,07,13,21,4.80
2016,10,07,13,22,20.90
2016,10,07,13,23,20.90
2016,10,07,13,24,8.10
2016,10,07,13,25,11.30
2016,10,07,13,26,4.80
2016,10,07,13,27,1.60
2016,10,07,13,28,4.80
2016,10,07,13,29,9.60
2016,10,07,13,30,14.50
2016,10,07,13,31,12.90
2016,10,07,13,32,14.50
2016,10,07,13,33,27.40
2016,10,07,13,34,14.50
2016,10,07,13,35,14.50
2016,10,07,13,36,16.10
2016,10,07,13,37,3.20
2016,10,07,13,38,1.60
2016,10,07,13,40,1.60
2016,10,07,13,41,11.30
2016,10,07,13,42,14.50
2016,10,07,13,43,8.10
2016,10,07,13,44,11.30
2016,10,07,13,45,17.70
2016,10,07,13,46,11.30
2016,10,07,13,47,8.10
2016,10,07,13,49,8.10
2016,10,07,13,50,24.20
2016,10,07,13,51,20.90
2016,10,07,13,52,24.20
2016,10,07,13,53,12.90
2016,10,07,13,54,16.10
2016,10,07,13,55,16.10
2016,10,07,13,56,8.10
2016,10,07,13,57,17.70
2016,10,07,13,58,11.30
2016,10,07,13,59,4.80
2016,10,07,14,00,22.50
2016,10,07,14,01,17.70
2016,10,07,14,02,19.30
2016,10,07,14,03,14.50
2016,10,07,14,04,17.70
2016,10,07,14,05,11.30
2016,10,07,14,06,11.30
2016,10,07,14,08,6.40
2016,10,07,14,09,6.40
2016,10,07,14,10,6.40
2016,10,07,14,11,14.50
2016,10,07,14,12,11.30
2016,10,07,14,13,8.10
2016,10,07,14,14,6.40
2016,10,07,14,15,6.40
2016,10,07,14,16,16.10
2016,10,07,14,17,20.90
2016,10,07,14,18,16.10
2016,10,07,14,19,17.70
2016,10,07,14,20,14.50
2016,10,07,14,21,19.30
2016,10,07,14,22,14.50
2016,10,07,14,23,22.50
2016,10,07,14,24,16.10
2016,10,07,14,25,14.50
2016,10,07,14,26,27.40
2016,10,07,14,27,22.50
2016,10,07,14,28,16.10
2016,10,07,14,29,12.90
2016,10,07,14,30,16.10
2016,10,07,14,31,32.20
2016,10,07,14,32,19.30
2016,10,07,14,33,8.10
2016,10,07,14,34,14.50
2016,10,07,14,35,25.70
2016,10,07,14,36,30.60
2016,10,07,14,37,17.70
2016,10,07,14,38,22.50
2016,10,07,14,39,24.20
2016,10,07,14,40,24.20
2016,10,07,14,41,19.30
2016,10,07,14,42,19.30
2016,10,07,14,43,25.70
2016,10,07,14,44,37.00
2016,10,07,14,45,22.50
2016,10,07,14,46,16.10
2016,10,07,14,47,30.60
2016,10,07,14,48,19.30
2016,10,07,14,49,12.90
2016,10,07,14,50,4.80
2016,10,07,14,51,11.30
2016,10,07,14,52,30.60
2016,10,07,14,53,11.30
2016,10,07,14,54,12.90
2016,10,07,14,55,17.70
2016,10,07,14,56,11.30
2016,10,07,14,57,9.60
2016,10,07,14,58,1.60
2016,10,07,14,59,11.30
2016,10,07,15,00,9.60
2016,10,07,15,01,17.70
2016,10,07,15,02,16.10
2016,10,07,15,03,4.80
2016,10,07,15,04,6.40
2016,10,07,15,05,9.60
2016,10,07,15,06,19.30
2016,10,07,15,07,4.80
2016,10,07,15,08,9.60
2016,10,07,15,09,22.50
2016,10,07,15,10,17.70
2016,10,07,15,11,17.70
2016,10,07,15,12,17.70
2016,10,07,15,13,9.60
2016,10,07,15,14,8.10
2016,10,07,15,15,9.60
2016,10,07,15,16,9.60
2016,10,07,15,17,9.60
2016,10,07,15,18,14.50
2016,10,07,15,19,27.40
2016,10,07,15,20,24.20
2016,10,07,15,21,25.70
2016,10,07,15,22,20.90
2016,10,07,15,23,22.50
2016,10,07,15,24,22.50
2016,10,07,15,25,19.30
2016,10,07,15,26,9.60
2016,10,07,15,27,24.20
2016,10,07,15,28,17.70
2016,10,07,15,29,22.50
2016,10,07,15,30,17.70
2016,10,07,15,31,16.10
2016,10,07,15,32,20.90
2016,10,07,15,33,9.60
2016,10,07,15,34,9.60
2016,10,07,15,35,11.30
2016,10,07,15,36,11.30
2016,10,07,15,37,6.40
2016,10,07,15,38,8.10
2016,10,07,15,39,9.60
2016,10,07,15,40,11.30
2016,10,07,15,41,4.80
2016,10,07,15,42,1.60
2016,10,07,15,43,6.40
2016,10,07,15,44,19.30
2016,10,07,15,45,11.30
2016,10,07,15,46,6.40
2016,10,07,15,47,22.50
2016,10,07,15,48,19.30
2016,10,07,15,49,17.70
2016,10,07,15,50,6.40
2016,10,07,15,51,8.10
2016,10,07,15,52,11.30
2016,10,07,15,53,9.60
2016,10,07,15,54,11.30
2016,10,07,15,55,9.60
2016,10,07,15,56,6.40
2016,10,07,15,57,11.30
2016,10,07,15,58,12.90
2016,10,07,15,59,11.30
2016,10,07,16,00,11.30
2016,10,07,16,01,8.10
2016,10,07,16,02,9.60
2016,10,07,16,03,20.90
2016,10,07,16,04,29.00
2016,10,07,16,05,11.30
2016,10,07,16,07,4.80
2016,10,07,16,08,9.60
2016,10,07,16,09,14.50
2016,10,07,16,10,9.60
2016,10,07,16,11,11.30
2016,10,07,16,12,16.10
2016,10,07,16,13,16.10
2016,10,07,16,14,9.60
2016,10,07,16,15,9.60
2016,10,07,16,16,6.40
2016,10,07,16,17,6.40
2016,10,07,16,18,1.60
2016,10,07,16,20,3.20
2016,10,07,16,21,16.10
2016,10,07,16,22,11.30
2016,10,07,16,23,14.50
2016,10,07,16,24,17.70
2016,10,07,16,25,9.60
2016,10,07,16,26,14.50
2016,10,07,16,27,19.30
2016,10,07,16,28,19.30
2016,10,07,16,29,12.90
2016,10,07,16,30,19.30
2016,10,07,16,31,17.70
2016,10,07,16,32,9.60
2016,10,07,16,33,9.60
2016,10,07,16,34,6.40
2016,10,07,16,35,8.10
2016,10,07,16,36,9.60
2016,10,07,16,37,9.60
2016,10,07,16,38,16.10
2016,10,07,16,39,16.10
2016,10,07,16,40,6.40
2016,10,07,16,41,3.20
2016,10,07,16,42,11.30
2016,10,07,16,43,4.80
2016,10,07,16,44,8.10
2016,10,07,16,45,3.20
2016,10,07,16,47,3.20
2016,10,07,16,48,9.60
2016,10,07,16,49,9.60
2016,10,07,16,50,12.90
2016,10,07,16,51,6.40
2016,10,07,16,52,6.40
2016,10,07,16,58,1.60
2016,10,07,17,04,1.60
2016,10,07,17,05,3.20
2016,10,07,17,06,1.60
2016,10,07,17,09,1.60
2016,10,07,17,11,4.80
2016,10,07,17,21,1.60
2016,10,07,17,24,3.20
2016,10,07,17,25,1.60
2016,10,07,17,26,3.20
2016,10,07,17,27,3.20
2016,10,07,17,28,9.60
2016,10,07,17,29,8.10
2016,10,07,17,30,3.20
2016,10,07,17,31,6.40
2016,10,07,17,32,12.90
2016,10,07,17,33,9.60
2016,10,07,17,34,16.10
2016,10,07,17,35,8.10
2016,10,07,17,36,14.50
2016,10,07,17,37,9.60
2016,10,07,17,38,1.60
2016,10,07,17,39,4.80
2016,10,07,17,40,1.60
2016,10,07,17,41,4.80
2016,10,07,17,42,1.60
2016,10,07,17,43,1.60
2016,10,07,17,46,1.60
2016,10,07,17,47,1.60
2016,10,07,17,50,1.60
2016,10,07,17,51,1.60
2016,10,07,17,52,3.20
2016,10,07,17,54,1.60
2016,10,07,17,57,1.60
2016,10,07,17,58,4.80
2016,10,07,18,01,1.60
2016,10,07,18,25,1.60
2016,10,07,18,37,1.60
2016,10,07,19,39,1.60
2016,10,07,20,18,1.60
2016,10,07,20,27,1.60
2016,10,07,21,11,1.60
2016,10,07,23,28,1.60
2016,10,07,23,34,1.60
2016,10,07,23,36,1.60
